Lapse_Rate
4.7 5.4 6.0 6.4 6.4 6.3 6.3 6.2 6.0 6.4 6.3 6.2 6.2 6.2 6.0 6.0 6.0 6.1 6.1 5.9 6.3 6.4 6.7 6.8 6.9 6.2 6.0 5.7 5.9 6.1 6.0 5.5 5.5 5.7 5.8 6.5 6.7 7.7 7.9 8.0 8.4 8.6 8.7
4.5 5.5 5.9 6.2 6.2 6.1 6.1 6.1 5.9 5.8 6.0 6.1 6.2 6.4 6.3 6.2 6.2 6.3 6.4 6.4 6.5 6.7 6.9 6.9 6.3 5.9 5.8 5.8 5.7 5.7 5.3 5.0 4.7 4.6 5.5 7.0 7.7 8.1 8.2 7.9 8.8 9.2 9.0
4.9 5.9 6.2 6.0 6.0 5.8 5.7 6.0 6.3 6.5 6.9 7.0 6.3 6.2 6.2 6.2 6.2 6.4 6.4 6.4 6.6 6.9 6.9 6.1 6.0 5.5 5.3 5.4 5.2 5.3 5.2 5.0 4.4 4.4 6.4 8.1 8.2 8.1 9.0 8.2 8.2 8.7 8.6
5.1 5.6 6.0 5.6 5.8 5.8 5.9 6.4 6.5 6.8 6.7 7.4 6.7 6.0 6.1 6.2 6.3 6.4 6.4 6.4 6.6 6.6 6.0 6.2 5.9 5.4 4.9 5.0 5.0 5.1 4.6 4.5 3.9 4.5 7.2 8.1 9.3 9.0 8.3 9.0 8.5 8.5 8.5
5.2 5.3 5.7 5.6 5.8 6.1 6.3 6.4 6.4 6.4 6.3 6.3 6.4 6.4 6.4 6.3 6.3 6.1 6.1 6.1 5.9 5.9 6.0 5.9 5.5 5.3 5.1 4.9 4.8 4.7 4.5 3.8 4.2 5.7 7.5 7.9 7.9 8.4 7.5 7.4 8.4 9.2 9.0
5.1 5.4 5.5 5.6 5.9 6.3 6.6 6.8 6.6 6.7 6.5 5.6 5.7 5.1 5.5 6.4 6.3 6.0 5.8 5.9 5.9 5.9 6.0 5.6 5.4 5.2 5.0 4.6 4.5 4.3 4.1 4.0 4.5 6.2 8.8 7.9 9.0 8.4 8.1 7.2 7.8 7.8 8.2
5.1 5.5 5.8 5.7 6.1 6.4 6.5 6.7 6.8 6.7 6.7 5.5 5.5 5.7 6.1 6.0 5.9 5.9 5.8 5.9 6.0 6.1 6.0 5.6 5.4 5.2 4.9 4.5 4.2 4.2 3.9 3.7 5.6 6.9 8.9 8.0 7.4 7.8 8.2 8.0 8.1 8.3 7.5
5.1 5.4 6.2 6.3 6.1 6.2 6.0 6.1 6.1 6.2 6.1 5.9 5.4 4.9 4.8 6.0 5.7 6.2 6.0 6.0 5.9 6.1 5.9 6.0 5.4 5.1 4.7 4.5 4.3 4.0 4.1 4.3 5.6 6.6 8.9 8.9 8.5 8.1 7.8 9.0 7.1 6.0 4.7
5.1 5.7 6.2 6.6 6.3 6.4 6.1 6.2 6.2 6.0 6.1 5.3 4.9 4.3 4.4 4.9 5.3 6.5 6.1 6.1 6.3 6.1 6.0 6.1 5.6 4.8 4.7 4.2 4.0 3.6 4.1 4.3 6.2 6.9 9.1 8.1 8.0 8.6 9.1 8.0 5.2 4.4 4.3
5.2 5.5 5.8 6.4 6.0 5.7 4.3 5.2 5.4 6.3 5.5 4.4 4.1 4.2 4.4 4.7 5.1 5.4 5.9 6.0 6.0 5.9 6.1 5.9 5.5 4.9 4.6 4.3 3.8 4.1 4.7 4.8 6.7 8.3 8.5 8.4 9.0 8.9 6.6 4.5 4.1 4.0 3.9
4.9 5.4 5.5 5.4 5.1 4.5 3.6 4.6 4.6 4.6 4.6 4.6 4.2 4.4 4.4 4.3 5.1 5.6 5.5 5.6 5.8 6.1 6.0 5.6 5.2 4.4 3.5 3.2 3.4 4.4 4.4 5.3 6.3 8.5 8.2 8.3 8.5 5.4 4.4 4.1 3.9 3.9 4.1
4.4 4.4 5.2 4.9 4.8 4.6 4.2 4.3 4.3 4.0 4.1 3.7 3.5 4.0 4.3 4.7 4.9 4.9 5.2 5.4 5.6 6.0 5.7 5.3 4.6 3.6 3.7 4.1 4.0 4.2 4.5 5.2 6.0 7.7 8.0 8.1 5.9 4.5 4.3 4.1 4.1 4.0 4.2
4.4 4.7 5.0 4.5 4.5 4.6 4.1 4.3 4.4 4.0 3.8 3.7 3.8 3.8 4.2 4.3 4.6 4.7 4.9 5.0 5.1 5.3 5.2 4.7 4.5 4.3 4.1 4.2 3.9 4.2 4.5 4.6 5.9 7.4 8.3 6.9 5.1 4.8 4.6 4.2 4.2 4.2 4.2
4.1 4.3 4.8 4.7 4.5 4.4 4.1 4.5 4.0 4.2 3.9 3.5 3.5 3.4 4.1 4.1 4.3 4.5 4.6 4.4 4.6 4.3 4.3 4.5 4.3 4.3 3.9 3.9 4.2 3.9 4.4 4.7 5.0 6.8 7.4 6.3 5.1 5.0 4.8 4.5 4.4 4.3 4.2
4.2 4.6 4.8 4.7 4.7 4.0 4.4 4.2 4.3 4.1 4.1 3.5 3.7 3.6 3.8 3.8 4.1 4.5 4.4 4.5 4.4 4.1 4.5 4.3 4.6 4.4 4.3 3.9 3.7 4.3 4.0 4.6 5.1 4.7 4.9 4.9 5.0 5.1 5.1 4.9 4.8 4.5 4.3
4.6 4.9 4.7 4.8 4.5 4.3 4.5 4.5 4.4 4.2 3.7 3.9 3.8 4.0 4.1 4.3 4.4 4.7 4.7 4.3 4.2 4.3 4.3 4.4 4.5 4.3 3.8 4.1 3.8 3.5 3.5 4.0 4.1 4.1 4.3 4.5 4.4 4.7 4.8 4.7 4.7 4.6 4.6
5.3 4.9 5.0 4.8 4.5 4.7 4.9 4.7 4.2 4.0 4.0 4.0 3.9 3.9 4.2 4.6 4.9 4.8 4.7 4.4 3.9 3.4 3.6 3.6 3.3 3.4 3.7 3.4 3.4 3.3 3.3 3.2 3.5 3.4 3.6 3.5 3.8 3.9 4.2 4.2 4.1 4.2 4.4
5.1 5.2 5.4 5.5 5.1 5.0 5.0 4.6 4.5 4.1 4.2 4.2 4.3 4.5 4.6 4.8 4.9 4.8 4.8 4.5 3.8 3.7 3.7 3.7 3.8 3.8 4.0 4.1 4.1 3.3 3.4 3.1 3.0 3.2 2.8 2.8 2.6 2.7 3.1 3.2 3.2 3.4 4.1
5.3 5.2 5.2 5.3 5.3 5.3 4.8 4.6 4.8 4.4 4.5 4.5 4.5 4.8 4.9 5.0 5.0 5.3 5.1 4.3 4.1 4.2 4.2 4.1 3.6 4.1 3.7 3.5 3.6 3.0 3.0 3.0 3.3 3.1 2.9 2.3 1.8 1.7 1.8 1.8 1.8 2.3 3.1
5.3 5.4 5.3 5.4 5.2 5.2 4.6 4.8 4.7 4.6 4.7 4.6 4.9 5.1 4.9 5.0 4.8 5.1 4.9 4.6 4.5 4.4 4.3 4.1 4.3 2.9 3.9 4.0 3.7 3.2 2.9 2.8 3.0 3.2 3.0 2.2 1.5 1.1 1.0 0.7 0.9 1.1 1.4
5.4 5.2 5.3 5.3 5.5 5.3 4.7 5.1 5.3 5.4 5.2 4.9 4.8 5.0 5.0 4.9 4.8 5.0 4.8 4.4 4.3 5.1 4.9 4.4 3.5 3.8 3.0 3.3 4.4 3.8 3.8 3.4 3.5 2.9 2.3 2.4 1.8 1.2 0.8 0.5 0.4 0.1 0.2
5.4 5.5 5.3 5.7 5.2 5.4 5.3 5.2 5.7 5.7 5.4 5.4 4.7 4.8 5.1 5.2 4.9 4.8 4.9 4.6 4.4 4.4 4.1 4.2 4.3 3.6 3.6 3.5 5.0 4.9 5.8 5.2 3.9 3.3 2.4 2.5 2.1 1.3 1.0 0.4 0.2 -0.1 -0.2
5.4 5.5 5.4 5.3 5.1 5.4 5.5 5.4 4.8 5.2 4.4 4.9 4.8 5.2 4.9 5.0 4.8 5.0 4.7 4.6 4.3 4.3 4.5 4.3 4.2 4.7 4.6 3.4 3.1 5.4 4.5 5.7 4.0 2.6 2.7 2.6 2.1 1.8 1.4 0.6 0.0 -0.3 -0.5
5.1 5.4 4.8 5.3 5.2 5.5 5.4 5.7 5.7 5.4 5.5 5.8 5.4 5.6 5.1 4.9 4.7 4.6 4.5 4.6 4.6 4.3 4.4 4.4 3.8 4.5 4.4 4.9 3.4 3.1 3.2 4.3 5.5 5.4 2.8 2.4 1.9 2.1 1.3 0.4 0.4 -0.1 -0.7
5.0 4.7 5.0 5.2 5.5 5.6 5.5 5.8 5.2 5.1 5.1 4.7 4.4 5.2 4.9 4.6 4.6 4.3 4.4 4.3 4.5 4.3 4.4 4.3 3.8 3.9 4.3 4.7 5.0 3.2 3.2 3.3 3.6 5.5 6.3 3.7 1.5 1.5 0.9 0.6 0.4 -0.1 -0.9
4.4 4.1 4.7 4.9 4.8 5.1 4.8 5.4 5.6 5.2 5.0 4.3 4.1 5.1 4.8 4.7 4.5 4.3 4.0 4.2 4.3 4.3 4.3 4.1 4.0 3.9 4.0 4.3 4.3 4.1 4.8 5.3 4.7 4.8 4.9 4.7 4.5 2.9 1.2 -0.0 -0.6 -0.9 -1.2
Wind_Speed
7 12 14 13 13 15 15 15 16 16 19 20 19 19 20 21 21 21 22 25 24 25 27 28 26 26 27 27 27 27 28 27 27 25 26 27 28 28 26 26 26 28 28
13 14 15 15 14 14 16 15 16 15 16 19 21 20 20 22 24 23 23 24 25 27 27 26 25 25 25 25 26 25 26 26 25 23 26 27 26 27 28 26 25 27 27
12 16 16 14 14 14 15 16 16 18 16 20 20 20 21 22 24 23 22 23 25 27 25 24 23 24 25 24 24 25 26 24 21 21 23 20 24 26 27 25 26 26 25
16 15 15 14 14 17 17 17 18 18 16 20 18 19 20 21 22 22 23 25 25 27 24 23 22 23 24 24 24 24 25 22 21 21 21 19 22 25 24 24 25 24 23
14 14 15 15 17 18 18 18 20 22 22 23 20 19 19 19 22 21 23 25 25 26 24 23 23 23 23 24 24 24 23 20 21 22 22 20 19 23 23 23 22 22 23
14 14 16 17 19 18 19 20 22 24 25 26 22 25 19 19 23 23 22 22 24 24 24 24 23 23 23 24 24 24 21 19 19 21 23 20 18 22 22 23 22 23 21
12 14 16 19 20 21 21 21 21 23 21 27 25 24 23 20 21 21 21 19 24 23 22 23 22 22 23 24 24 22 20 19 21 21 21 19 20 21 22 22 21 21 22
13 14 16 22 24 25 25 24 22 20 17 18 22 25 26 21 22 19 20 19 22 23 22 21 22 22 22 22 22 21 20 19 19 20 19 18 21 21 21 21 22 22 22
14 15 15 19 22 24 24 22 20 20 17 16 19 24 24 23 20 19 20 19 21 22 21 20 20 22 21 21 20 19 20 21 18 18 18 17 20 21 20 21 21 21 21
11 13 14 18 18 18 20 13 20 18 19 20 21 22 24 23 20 19 19 18 19 20 20 20 20 20 20 19 20 18 20 19 18 17 16 17 20 20 21 21 21 20 21
9 10 14 15 15 16 14 18 20 22 22 23 21 22 19 16 17 17 19 19 17 18 19 20 19 19 18 19 18 18 15 15 16 15 14 20 19 20 19 20 20 20 19
8 10 11 15 16 17 14 16 16 15 13 14 14 15 14 15 15 16 18 18 17 17 20 19 17 16 15 13 14 15 11 12 14 13 16 17 18 19 18 19 19 19 17
13 12 11 15 16 16 14 15 13 12 13 12 13 14 13 14 13 12 12 10 12 15 15 13 12 11 12 12 12 11 11 12 12 11 17 17 18 17 17 18 17 16 17
13 13 12 15 15 15 14 13 14 13 11 11 11 13 12 11 11 9 9 10 10 8 12 11 11 11 12 12 12 12 12 12 12 12 15 15 16 16 16 16 16 16 16
13 13 11 14 14 14 13 12 12 11 11 11 11 11 11 10 9 8 8 8 9 9 10 10 11 10 11 11 11 11 13 13 14 13 13 16 15 14 15 15 15 15 15
14 13 12 12 15 15 12 14 11 12 12 11 10 10 10 9 9 8 7 7 8 8 8 10 10 10 9 10 10 11 11 10 12 12 11 13 14 14 14 15 14 14 14
13 13 12 12 14 13 14 15 12 11 11 10 10 10 11 9 8 7 7 6 7 8 11 12 11 10 10 9 10 9 9 9 10 11 10 10 12 14 13 13 12 12 13
13 14 12 10 12 13 14 13 10 11 10 9 10 9 10 8 8 8 8 7 7 9 10 11 10 6 6 5 5 7 7 8 8 8 8 8 8 10 11 11 11 11 11
14 13 12 12 12 10 13 11 9 9 9 9 9 8 9 9 9 9 8 9 9 9 9 10 6 5 5 5 5 6 5 6 5 6 7 7 8 8 8 9 10 11 11
12 13 12 10 12 10 11 9 6 5 5 6 8 8 9 9 10 9 8 9 8 8 7 6 5 5 4 5 5 4 3 2 3 4 5 5 6 6 5 5 5 7 9
11 12 12 11 10 8 6 6 4 4 3 4 7 9 10 11 11 10 8 9 8 7 6 8 4 6 3 5 5 3 1 1 2 3 4 5 5 4 4 4 3 3 4
14 13 11 10 11 9 7 4 3 4 3 4 7 8 9 11 11 10 10 9 9 6 7 6 6 4 2 5 2 2 3 3 3 3 4 5 5 5 5 4 3 2 3
13 13 13 13 12 11 9 6 3 5 3 2 3 3 8 11 12 12 12 11 10 9 6 7 7 6 4 5 2 1 2 3 1 2 4 4 6 6 6 5 4 2 1
15 14 14 13 13 11 11 9 9 6 4 4 4 5 10 12 13 13 12 11 11 9 7 7 9 5 4 6 2 2 1 1 2 1 2 4 5 6 8 8 6 4 3
13 14 14 14 14 13 13 12 10 6 3 3 3 7 7 10 12 13 13 12 11 10 9 9 7 7 5 4 4 3 3 1 1 3 2 3 4 5 9 9 8 7 5
12 12 12 13 13 13 13 13 13 11 7 4 3 5 5 5 8 12 12 13 12 11 10 11 11 9 8 6 6 5 4 3 4 4 5 4 4 3 5 9 10 10 8
Wind_Direction
169 158 159 153 145 140 132 121 118 119 119 120 121 117 114 110 107 107 108 105 104 102 97 91 90 88 86 84 86 86 84 83 84 83 79 78 80 82 80 77 78 78 76
150 156 156 152 147 139 135 130 126 120 122 130 129 118 117 115 110 107 106 106 106 99 96 96 95 91 90 90 89 88 91 90 85 84 86 80 80 82 80 77 77 76 73
146 151 151 147 145 137 133 130 129 125 132 119 108 110 109 111 111 111 109 105 103 100 99 97 95 96 95 93 93 95 92 90 86 86 85 84 82 81 78 75 75 75 72
145 146 147 139 134 133 125 127 126 118 110 109 110 110 113 114 114 111 110 109 106 102 98 97 97 98 98 96 96 95 91 85 80 84 85 82 83 84 83 79 77 74 73
138 140 142 132 129 129 128 127 119 113 107 103 105 102 103 116 110 104 103 104 106 102 103 100 99 100 100 100 99 97 92 88 88 91 89 86 86 84 82 79 77 80 75
135 139 135 126 128 128 129 128 122 117 113 104 96 92 87 94 100 97 96 101 105 103 104 103 101 101 101 102 100 96 91 87 86 90 90 84 87 88 86 82 77 75 75
132 137 136 128 124 117 114 110 110 109 108 110 112 112 111 105 101 97 96 101 107 108 103 100 102 102 102 101 100 94 86 84 93 91 92 88 86 86 83 83 82 77 72
131 128 134 132 121 119 113 109 103 101 106 106 114 116 110 107 104 101 98 108 111 107 100 102 103 102 102 101 98 93 89 86 91 92 92 90 88 87 84 80 76 73 70
115 121 126 132 122 115 107 113 113 118 116 116 108 101 100 103 100 105 96 103 113 108 104 102 102 102 103 101 95 90 91 88 88 87 92 89 91 86 82 80 75 74 72
110 113 117 124 122 122 119 133 134 131 114 103 98 102 105 103 99 95 100 97 104 108 108 104 101 103 104 101 96 92 93 88 90 92 88 90 85 87 78 77 74 72 70
112 115 118 119 120 123 123 131 122 117 112 110 108 113 103 101 104 103 104 98 98 111 109 105 105 104 100 93 92 94 82 86 89 87 82 84 86 81 79 78 75 73 71
133 128 122 119 118 124 124 117 107 107 107 108 110 109 105 106 107 105 101 99 99 113 108 107 106 103 98 100 93 86 76 80 88 76 82 86 87 85 82 79 78 77 75
139 123 126 121 121 124 121 119 117 115 114 111 114 114 113 109 108 105 100 91 97 110 113 109 105 102 104 102 90 87 84 77 78 65 84 89 89 89 87 84 81 78 75
129 130 130 128 123 124 123 122 122 122 124 120 118 118 117 112 111 107 102 102 99 110 114 115 109 109 102 99 100 92 88 84 78 77 84 92 93 93 91 89 84 79 74
134 141 140 133 133 130 126 127 126 126 124 125 123 122 124 120 115 114 101 105 108 115 125 123 121 114 106 97 93 98 87 85 86 82 81 78 90 93 92 89 82 78 74
147 150 145 137 138 137 136 137 135 132 135 134 132 131 129 129 127 116 109 107 111 119 128 135 126 118 107 111 101 94 92 87 90 89 84 78 78 87 88 85 80 75 71
157 153 151 143 144 144 148 141 138 137 142 143 137 142 139 133 131 127 118 113 118 121 118 117 113 110 108 103 101 98 94 90 91 89 88 85 75 72 87 84 79 72 65
155 159 153 149 154 157 147 147 147 145 148 145 147 152 147 142 148 135 133 128 134 128 126 125 127 116 111 111 115 102 106 106 102 103 97 96 88 81 81 82 75 67 60
162 160 155 156 160 156 148 150 154 148 155 157 158 160 169 169 158 145 141 138 143 135 129 134 130 128 133 130 124 121 118 112 110 112 110 106 101 99 97 82 71 61 56
167 165 161 161 161 150 147 141 141 146 160 164 173 178 168 164 155 148 142 144 147 136 139 139 131 108 136 132 116 110 101 108 127 125 128 119 115 109 105 96 76 63 55
170 165 164 164 163 150 150 155 164 175 179 184 192 188 179 166 164 160 156 156 161 163 163 150 124 136 131 154 131 111 133 161 157 155 152 154 149 141 130 122 110 74 52
178 176 171 176 169 170 169 165 150 172 188 193 185 186 187 179 175 172 171 172 169 153 158 166 159 144 116 178 142 130 190 195 195 183 177 184 177 174 174 160 155 116 63
185 186 186 183 180 181 179 155 107 117 90 126 163 189 202 195 190 187 185 175 175 175 175 180 176 171 151 193 223 161 157 227 198 170 210 204 194 200 198 193 189 173 103
192 194 190 188 183 186 174 179 182 181 167 183 177 191 193 201 199 197 192 187 184 185 185 187 185 184 159 179 207 213 56 116 200 224 211 218 214 216 212 208 206 202 198
194 192 192 194 183 185 187 187 189 183 203 146 150 185 192 198 205 201 199 195 196 196 201 189 182 194 192 178 191 163 207 195 207 223 247 204 228 224 221 216 211 210 210
195 192 189 191 189 187 186 188 190 190 182 161 160 182 201 201 206 211 206 206 208 205 201 204 199 195 200 202 199 192 186 182 201 209 236 233 239 215 219 218 216 214 212